{"data":{"norad_id":58652,"intl_designator":"2023-206C","name":"SHIYAN-24C 03","alt_names":[],"object_type":"PAYLOAD","status":"ACTIVE","operator":null,"country":"PRC","launch_date":"2023-12-25","launch_site_code":"SCSLA","launch_vehicle":null,"mission":null,"orbit_class":"UNKNOWN","rcs_meters":null,"size_class":null,"mass_kg":null,"dimensions":null,"purposes":[],"wikipedia_slug":null,"has_3d_model":false,"image_url":null,"decayed_at":null,"tle_current":{"epoch":"2026-09-21T13:55:21.085824Z","epoch_age_seconds":154265,"freshness":"FRESH","line1":"1 58652U 23206C   26264.58010516  .00001758  00000+0  15355-3 0  9997","line2":"2 58652  97.7273 227.6844 0004750 115.2387 244.9328 14.98084960149734","mean_motion":14.9808496,"eccentricity":0.000475,"inclination_deg":97.7273,"raan_deg":227.6844,"arg_perigee_deg":115.2387,"mean_anomaly_deg":244.9328,"bstar":0.00015355,"rev_number":14973,"period_min":96.122719234829,"perigee_km":569.51205860709,"apogee_km":576.1154618293,"semimajor_km":6950.9507602182,"source":"CELESTRAK","updated_at":"2026-09-22T09:00:26.779863Z"}}}